sat.trackr.live / text

‹ back to catalog

STARLINK-31926

NORAD 59879 · 2024-098X

PAYLOAD ACTIVE UNKNOWN

§ Identity

Operator
Country
US
Launch date
2024-05-24
Launch site
AFETR
Launch vehicle
Mass (kg)
RCS (m²)

Purposes: comms

External: N2YO · Heavens-Above · Gunter

§ Orbital elements

Epoch: 2026-05-25T03:10:36.546816Z

Period
94.27 min
Inclination
43.0031°
Eccentricity
0.0002601
Mean motion
15.27565295 rev/d
Perigee alt
481.3 km
Apogee alt
484.9 km
Semi-major
6,861.2 km
B*
4.4431e-5
RAAN
195.7837°
Arg perigee
275.5338°
Mean anomaly
84.5217°
Rev number
11,365

§ Raw data

STARLINK-319261 59879U 24098X   26145.13236744  .00000960  00000+0  44431-4 0  99932 59879  43.0031 195.7837 0002601 275.5338  84.5217 15.27565295113653

JSON: /api/v1/satellites/59879 · /tle

For live sub-satellite position, see the globe view (requires WebGL).

§ Visibility from observer

Set your observer location to see the next 7 days of passes ≥ 10°. The values pass through the URL so the page stays shareable.

No JS? Fill the form by hand. The geolocation button needs JavaScript.